Regional Weather Roundup
Issued by NWS Sterling, VA

Home | Current Version | Previous Version | Graphics & Text | Print | Product List | Glossary On
Versions: 1 2 3 4 5 6 7 8 9 10 11 12 13 14 15 16 17 18 19 20 21 22 23 24 25 26 27 28 29 30 31 32 33 34 35 36 37 38 39 40 41 42 43 44 45 46 47 48 49 50
000
ASUS41 KLWX 042110
RWRLWX

REGIONAL WEATHER ROUNDUP
NATIONAL WEATHER SERVICE BALTIMORE MD/WASHINGTON DC
500 PM EDT FRI SEP 04 2015

Note: "FAIR" indicates few or no clouds below 12,000 feet
with no significant weather and/or obstructions to visibility.
 TC=TEMPERATURE CELSIUS

 * =Non NWS site. Station does not report precipitation (e.g. rain,
    snow, etc.), thunder, or fog.

DCZ001-MDZ009-015-VAZ040>042-051-053>054-042200-
WASHINGTON METRO

CITY           SKY/WX    TMP DP  RH WIND       PRES   REMARKS
WASHINGTON NAT PTSUNNY   87  70  56 SE6       30.02R HX  92
DULLES         LGT RAIN  76  71  85 CALM      30.02F
ANDREWS AFB    FAIR      85  71  60 SE5       30.01S HX  90
FT BELVOIR     FAIR      84  70  61 CALM      30.01F
QUANTICO       PTSUNNY   76  69  79 NW8       30.03R
COLLEGE PARK*  FAIR      88  66  48 E5        30.01S HX  90
LEESBURG*      FAIR      77  72  83 S6        30.04F
MANASSAS*      SUNNY     75  66  73 CALM      30.02F
GAITHERSBURG*  FAIR      84  68  58 CALM      30.06F

$$

MDZ006>007-011-014-042200-
BALTIMORE METRO

CITY           SKY/WX    TMP DP  RH WIND       PRES   REMARKS
BWI AIRPORT    FAIR      88  66  48 E12       30.02R HX  90
MD SCIENCE CTR   N/A     90  65  43 MISG      30.02R HX  92
MARTIN STATE   PTSUNNY   88  72  58 E12G20    30.04R HX  94
ANNAPOLIS      FAIR      88  69  53 E9        30.01S HX  92
FORT MEADE*    FAIR      86  66  51 E8        30.03S

$$

MDZ012-015-019>023-042200-
MARYLAND EASTERN SHORE

CITY           SKY/WX    TMP DP  RH WIND       PRES   REMARKS
OCEAN CITY     FAIR      83  72  69 E12       30.03R
SALISBURY      FAIR      85  68  56 E13       30.02S
BAY BRIDGE AP*   N/A     90  63  40 E9        30.01S HX  90
CAMBRIDGE*     FAIR      90  63  40 E12       30.01S HX  90
EASTON*        SUNNY     90  66  45 E9G16     30.05S HX  92

$$

MDZ017>025-042200-
SOUTHERN MARYLAND

CITY           SKY/WX    TMP DP  RH WIND       PRES   REMARKS
PATUXENT RIVER PTSUNNY   85  71  63 E6        30.01R HX  90
ST INIGOES     FAIR      85  70  60 SE6       30.01R
LEONARDTOWN*   NOT AVBL

$$

MDZ003>005-042200-
NORTH CENTRAL MARYLAND

CITY           SKY/WX    TMP DP  RH WIND       PRES   REMARKS
FREDERICK*     SUNNY     84  72  65 E5        30.05S
HAGERSTOWN APT FAIR      89  68  49 E10G17    30.03S HX  93
WESTMINSTER*   FAIR      79  73  83 CALM      30.05F

$$

MDZ501>502-042200-
WESTERN MARYLAND

CITY           SKY/WX    TMP DP  RH WIND       PRES   REMARKS
OAKLAND*       FAIR      70  61  73 CALM      30.17S
CUMBERLAND*    FAIR      88  64  45 N6        30.07S

$$

VAZ025>031-042200-
SHENANDOAH VALLEY

CITY           SKY/WX    TMP DP  RH WIND       PRES   REMARKS
WINCHESTER*    FAIR      88  66  48 E9        30.03S HX  90
FRONT ROYAL*   FAIR      86  68  54 E5        30.03R
LURAY*         FAIR      88  66  48 SW5       30.03S HX  90
NEW MARKET*    FAIR      79  71  78 E3        30.03F
STAUNTON*      FAIR      88  66  47 NE6       30.08S HX  90
WAYNESBORO*    CLOUDY    73  66  77 NW32G46   30.08R VSB 1/2

$$

WVZ021-048>050-054>055-042200-
EASTERN WEST VIRGINIA PANHANDLE

CITY           SKY/WX    TMP DP  RH WIND       PRES   REMARKS
MARTINSBURG    FAIR      87  66  49 SE9       30.03R
PETERSBURG*    FAIR      77  69  76 CALM      30.07R

$$

VAZ036>039-050-042200-
CENTRAL FOOTHILLS

CITY           SKY/WX    TMP DP  RH WIND       PRES   REMARKS
CHARLOTTESVILL FAIR      85  69  58 E5        30.03R
CULPEPER*      LGT RAIN  73  69  87 CALM      30.04S
ORANGE*        TSTM      72  70  94 SW6       30.07R
GORDONSVILLE*  CLOUDY    71  66  84 N8G17     30.05R HAZE
WARRENTON*     FAIR      73  72  96 CALM      30.03R

$$

VAZ055>057-042200-
NORTH AND CENTRAL PIEDMONT

CITY           SKY/WX    TMP DP  RH WIND       PRES   REMARKS
FREDERICKSBRG* FAIR      82  67  61 N10       30.02R
STAFFORD*      FAIR      78  69  74 CALM      30.07R

$$

NCZ024-NYZ072-PAZ021-071-VAZ022-071-042200-
OTHER REGIONAL OBSERVATIONS

CITY           SKY/WX    TMP DP  RH WIND       PRES   REMARKS
NEW YORK CITY  FAIR      83  62  49 E10G20    30.14R
PHILADELPHIA   PTSUNNY   85  67  54 E16       30.07R
PITTSBURGH     PTSUNNY   88  58  36 W7        30.06R
ROANOKE        TSTM      72  66  81 NE41      30.12R
RICHMOND       CLOUDY    83  70  64 E6        30.03R
RALEIGH        CLOUDY    82  70  66 VRB3      30.01R

$$

ANZ530>537-042200-
MARINE OBSERVATIONS

STATION/POSITION TIME  TEMP    WIND        PRES
                       AIR SEA DIR/SP/G
                 (UTC) (F)     (DEG/KT/KT) (MB)
THOMAS PT LIGHT  2100   87 81  100/ 13/ 15 1016.6
BALT KEY BRIDGE  2000   87     100/ 10/ 12 1016.1F
COVE POINT       2000   82     360/  5/  7 1016.8S
LEWISETTA        2000   84 83  130/ 11/ 12 1015.4F
SOLOMONS ISLAND  2000      84                N/A
PINEY POINT      2005          160/ 10/ 11   N/A

$$



USA.gov is the U.S. government's official web portal to all federal, state and local government web resources and services.